802  
ASUS42 KCAE 160510  
RWRCAE  
REGIONAL WEATHER ROUNDUP  
NATIONAL WEATHER SERVICE COLUMBIA SC  
1200 AM EST SAT DEC 16 2017  
 
NOTE: "FAIR" INDICATES FEW OR NO CLOUDS BELOW 12,000 FEET WITH NO  
SIGNIFICANT WEATHER AND/OR S TO VISIBILITY
.  
 
NOT ALL STATIONS ARE QUALITY CONTROLLED BY THE NATIONAL  
WEATHER SERVICE. USE DATA WITH CAUTION...ESPECIALLY  
DEWPOINT OBSERVATIONS.  
 
SCZ001>056-GAZ040-063>065-077-160600-   
..UPSTATE SOUTH CAROLINA
 
 
 
CITY SKY/WX TMP DP RH WIND PRES REMARKS
 
ANDERSON CLEAR 32 24 72 SW5 30.15R WCI 27  
LIBERTY CLEAR 27 26 95 CALM 30.12S  
SPARTANBURG CLEAR 34 19 55 NW6 30.14R WCI 29  
CLEMSON CLEAR 31 23 72 CALM 30.15R  
GREENVILLE CLEAR 36 21 54 N7 30.14R WCI 30  
GREENWOOD CLEAR 31 24 75 SW3 30.17R  
GREER CLEAR 30 22 72 CALM 30.14S  
ROCK HILL CLEAR 28 23 81 CALM 30.14R  
CHESTER CLEAR 32 21 64 NW3 30.15R  
LAURENS CLEAR 30 27 86 CALM 30.15R  
 
   
..CENTRAL SOUTH CAROLINA
 
 
 
CITY SKY/WX TMP DP RH WIND PRES REMARKS
 
COLUMBIA APT CLEAR 36 28 73 W7 30.16R WCI 30  
COLUMBIA OWENS CLEAR 41 25 53 W6 30.18R  
MCENTIRE ANGB CLEAR 38 26 64 W6 30.16R WCI 33  
ORANGEBURG CLEAR 41 26 55 NW7 30.17R  
SUMTER SHAW CLEAR 42 28 57 W7 30.14R  
NEWBERRY CLEAR 32 28 86 CALM 30.19R  
AIKEN FAIR 32 27 80 W5 30.20R WCI 27  
BARNWELL N/A 39 28 65 CALM 30.18R  
MANNING FAIR 45 -29 4 MISG 30.15R  
CAMDEN FAIR 36 30 80 CALM 30.16R  
LANCASTER CLEAR 32 28 86 CALM 30.15R  
WINNSBORO CLEAR 34 28 80 CALM 30.15R  
 
   
..EASTERN AND COASTAL SOUTH CAROLINA
 
 
 
CITY SKY/WX TMP DP RH WIND PRES REMARKS
 
MYRTLE BEACH CLOUDY 46 34 62 N8 30.14R  
N MYRTLE BCH CLOUDY 45 34 65 N3 30.12R  
CONWAY FAIR 41 34 75 CALM 30.14R  
MARION FAIR 36 32 87 CALM 30.15R  
HARTSVILLE FAIR 32 30 93 CALM 30.14R  
FLORENCE CLEAR 37 32 82 CALM 30.15R  
DARLINGTON CLEAR 32 30 92 NW3 30.16R  
CHARLESTON APT CLOUDY 49 31 49 NW10 30.14R  
MOUNT PLEASANT FAIR 52 34 50 NW7 30.14R  
WALTERBORO PTCLDY 45 30 57 NW8 30.17R  
BEAUFORT MOCLDY 50 31 48 NW9 30.17R  
 
   
..EASTERN GEORGIA
 
 
 
CITY SKY/WX TMP DP RH WIND PRES REMARKS
 
AUGUSTA BUSH F CLEAR 37 25 61 NW6 30.19R WCI 32  
AUGUSTA DANIEL CLEAR 39 24 55 W5 30.19R  
THOMSON CLEAR 34 23 65 N5 30.23S WCI 30  
WASHINGTON FAIR 32 23 69 W6 30.17S WCI 26  
CLAXTON FAIR 48 30 50 W8 30.20R  
SYLVANIA PTCLDY 43 29 59 NW7 30.19S  
STATESBORO MOCLDY 44 24 45 NW8 30.19S  
SAVANNAH CLOUDY 49 31 49 NW7 30.18R  
 
   
..SOUTHERN NORTH CAROLINA
 
 
 
CITY SKY/WX TMP DP RH WIND PRES REMARKS
 
CHARLOTTE CLEAR 31 21 66 N5 30.13S WCI 26  
MONROE CLEAR 28 25 88 CALM 30.12R  
WADESBORO CLEAR 27 25 90 CALM 30.15R  
ASHEVILLE CLEAR 28 19 69 N13 30.13R WCI 17  
 

 
 
 
CLICK HERE TO GO TO PREVIOUS BULLETINS.

The Nexlab SC Page
The Nexlab GA Page Main Text Page